Time,TemperatureF,DewpointF,PressureIn,WindDirection,WindDirectionDegrees,WindSpeedMPH,WindSpeedGustMPH,Humidity,HourlyPrecipIn,Conditions,Clouds,dailyrainin,SolarRadiationWatts/m^2,SoftwareType,DateUTC
2013-05-24 00:02:00,77.0,67.0,30.02,East,80,7.0,10.0,71,0.00,,,0.00,0.000000,,2013-05-24 10:02:00,
2013-05-24 00:12:00,77.0,67.0,30.02,East,80,7.0,10.0,71,0.00,,,0.00,0.000000,,2013-05-24 10:12:00,
2013-05-24 00:33:00,76.0,65.0,30.01,ENE,64,8.0,10.0,69,0.00,,,0.00,0.000000,,2013-05-24 10:33:00,
2013-05-24 00:42:00,76.0,65.0,30.01,ENE,64,8.0,10.0,69,0.00,,,0.00,0.000000,,2013-05-24 10:42:00,
2013-05-24 00:52:00,76.0,65.0,30.01,ENE,64,8.0,10.0,69,0.00,,,0.00,0.000000,,2013-05-24 10:52:00,
2013-05-24 01:02:00,76.0,65.0,30.01,ENE,64,8.0,10.0,69,0.00,,,0.00,0.000000,,2013-05-24 11:02:00,
2013-05-24 01:12:00,76.0,65.0,30.01,ENE,64,8.0,10.0,69,0.00,,,0.00,0.000000,,2013-05-24 11:12:00,
2013-05-24 01:32:00,75.0,64.0,29.99,WNW,299,3.0,11.0,69,0.00,,,0.00,0.000000,,2013-05-24 11:32:00,
2013-05-24 01:42:00,75.0,64.0,29.99,WNW,299,3.0,11.0,69,0.00,,,0.00,0.000000,,2013-05-24 11:42:00,
2013-05-24 01:52:00,75.0,64.0,29.99,WNW,299,3.0,11.0,69,0.00,,,0.00,0.000000,,2013-05-24 11:52:00,
2013-05-24 02:01:00,75.0,64.0,29.99,WNW,299,3.0,11.0,69,0.00,,,0.00,0.000000,,2013-05-24 12:01:00,
2013-05-24 02:11:00,75.0,64.0,29.99,WNW,299,3.0,11.0,69,0.00,,,0.00,0.000000,,2013-05-24 12:11:00,
2013-05-24 02:33:00,77.0,61.0,29.98,NE,52,8.0,12.0,58,0.00,,,0.00,0.000000,,2013-05-24 12:33:00,
2013-05-24 02:42:00,77.0,61.0,29.98,NE,52,8.0,12.0,58,0.00,,,0.00,0.000000,,2013-05-24 12:42:00,
2013-05-24 02:52:00,77.0,61.0,29.98,NE,52,8.0,12.0,58,0.00,,,0.00,0.000000,,2013-05-24 12:52:00,
2013-05-24 03:02:00,77.0,61.0,29.98,NE,52,8.0,12.0,58,0.00,,,0.00,0.000000,,2013-05-24 13:02:00,
2013-05-24 03:11:00,77.0,61.0,29.98,NE,52,8.0,12.0,58,0.00,,,0.00,0.000000,,2013-05-24 13:11:00,
2013-05-24 03:32:00,75.0,62.0,29.98,East,99,3.0,9.0,64,0.00,,,0.00,0.000000,,2013-05-24 13:32:00,
2013-05-24 03:42:00,75.0,62.0,29.98,East,99,3.0,9.0,64,0.00,,,0.00,0.000000,,2013-05-24 13:42:00,
2013-05-24 03:52:00,75.0,62.0,29.98,East,99,3.0,9.0,64,0.00,,,0.00,0.000000,,2013-05-24 13:52:00,
2013-05-24 04:01:00,75.0,62.0,29.98,East,99,3.0,9.0,64,0.00,,,0.00,0.000000,,2013-05-24 14:01:00,
2013-05-24 04:11:00,75.0,62.0,29.98,East,99,3.0,9.0,64,0.00,,,0.00,0.000000,,2013-05-24 14:11:00,
2013-05-24 04:32:00,72.0,64.0,29.97,WNW,287,1.0,6.0,76,0.00,,,0.00,0.000000,,2013-05-24 14:32:00,
2013-05-24 04:42:00,72.0,64.0,29.97,WNW,287,1.0,6.0,76,0.00,,,0.00,0.000000,,2013-05-24 14:42:00,
2013-05-24 04:52:00,72.0,64.0,29.97,WNW,287,1.0,6.0,76,0.00,,,0.00,0.000000,,2013-05-24 14:52:00,
2013-05-24 05:02:00,72.0,64.0,29.97,WNW,287,1.0,6.0,76,0.00,,,0.00,0.000000,,2013-05-24 15:02:00,
2013-05-24 05:11:00,72.0,64.0,29.97,WNW,287,1.0,6.0,76,0.00,,,0.00,0.000000,,2013-05-24 15:11:00,
2013-05-24 05:33:00,72.0,62.0,29.98,NE,47,4.0,5.0,72,0.00,,,0.00,0.000000,,2013-05-24 15:33:00,
2013-05-24 05:43:00,72.0,62.0,29.98,NE,47,4.0,5.0,72,0.00,,,0.00,0.000000,,2013-05-24 15:43:00,
2013-05-24 05:52:00,72.0,62.0,29.98,NE,47,4.0,5.0,72,0.00,,,0.00,0.000000,,2013-05-24 15:52:00,
2013-05-24 06:03:00,72.0,62.0,29.98,NE,47,4.0,5.0,72,0.00,,,0.00,0.000000,,2013-05-24 16:03:00,
2013-05-24 06:12:00,72.0,62.0,29.98,NE,47,4.0,5.0,72,0.00,,,0.00,0.000000,,2013-05-24 16:12:00,
2013-05-24 06:33:00,73.0,63.0,30.00,NE,37,5.0,8.0,70,0.00,,,0.00,8.000000,,2013-05-24 16:33:00,
2013-05-24 06:42:00,73.0,63.0,30.00,NE,37,5.0,8.0,70,0.00,,,0.00,8.000000,,2013-05-24 16:42:00,
2013-05-24 06:52:00,73.0,63.0,30.00,NE,37,5.0,8.0,70,0.00,,,0.00,8.000000,,2013-05-24 16:52:00,
2013-05-24 07:01:00,73.0,63.0,30.00,NE,37,5.0,8.0,70,0.00,,,0.00,8.000000,,2013-05-24 17:01:00,
2013-05-24 07:12:00,73.0,63.0,30.00,NE,37,5.0,8.0,70,0.00,,,0.00,8.000000,,2013-05-24 17:12:00,
2013-05-24 08:32:00,82.0,69.0,30.02,SSE,156,6.0,11.0,64,-99.99,,,0.00,344.000000,,2013-05-24 18:32:00,
2013-05-24 08:42:00,82.0,69.0,30.02,SSE,156,6.0,11.0,64,-99.99,,,0.00,344.000000,,2013-05-24 18:42:00,
2013-05-24 08:52:00,82.0,69.0,30.02,SSE,156,6.0,11.0,64,-99.99,,,0.00,344.000000,,2013-05-24 18:52:00,
2013-05-24 09:01:00,82.0,69.0,30.02,SSE,156,6.0,11.0,64,-99.99,,,0.00,344.000000,,2013-05-24 19:01:00,
2013-05-24 09:11:00,82.0,69.0,30.02,SSE,156,6.0,11.0,64,-99.99,,,0.00,344.000000,,2013-05-24 19:11:00,
2013-05-24 09:32:00,83.0,68.0,30.02,South,180,8.0,11.0,60,0.00,,,0.00,592.000000,,2013-05-24 19:32:00,
2013-05-24 09:42:00,83.0,68.0,30.02,South,180,8.0,11.0,60,0.00,,,0.00,592.000000,,2013-05-24 19:42:00,
2013-05-24 09:52:00,83.0,68.0,30.02,South,180,8.0,11.0,60,0.00,,,0.00,592.000000,,2013-05-24 19:52:00,
2013-05-24 10:02:00,83.0,68.0,30.02,South,180,8.0,11.0,60,0.00,,,0.00,592.000000,,2013-05-24 20:02:00,
2013-05-24 10:11:00,83.0,68.0,30.02,South,180,8.0,11.0,60,0.00,,,0.00,592.000000,,2013-05-24 20:11:00,
2013-05-24 10:32:00,83.0,66.0,30.02,SSE,150,7.0,12.0,56,0.00,,,0.00,483.000000,,2013-05-24 20:32:00,
2013-05-24 10:42:00,83.0,66.0,30.02,SSE,150,7.0,12.0,56,0.00,,,0.00,483.000000,,2013-05-24 20:42:00,
2013-05-24 10:52:00,83.0,66.0,30.02,SSE,150,7.0,12.0,56,0.00,,,0.00,483.000000,,2013-05-24 20:52:00,
2013-05-24 11:01:00,83.0,66.0,30.02,SSE,150,7.0,12.0,56,0.00,,,0.00,483.000000,,2013-05-24 21:01:00,
2013-05-24 11:11:00,83.0,66.0,30.02,SSE,150,7.0,12.0,56,0.00,,,0.00,483.000000,,2013-05-24 21:11:00,
2013-05-24 11:33:00,84.0,70.0,30.03,WSW,255,6.0,11.0,62,0.00,,,0.00,701.000000,,2013-05-24 21:33:00,
2013-05-24 11:43:00,84.0,70.0,30.03,WSW,255,6.0,11.0,62,0.00,,,0.00,701.000000,,2013-05-24 21:43:00,
2013-05-24 11:53:00,84.0,70.0,30.03,WSW,255,6.0,11.0,62,0.00,,,0.00,701.000000,,2013-05-24 21:53:00,
2013-05-24 12:02:00,84.0,70.0,30.03,WSW,255,6.0,11.0,62,0.00,,,0.00,701.000000,,2013-05-24 22:02:00,
2013-05-24 12:12:00,84.0,70.0,30.03,WSW,255,6.0,11.0,62,0.00,,,0.00,701.000000,,2013-05-24 22:12:00,
2013-05-24 12:33:00,80.0,69.0,30.01,WSW,250,8.0,14.0,69,0.00,,,0.00,342.000000,,2013-05-24 22:33:00,
2013-05-24 12:42:00,80.0,69.0,30.01,WSW,250,8.0,14.0,69,0.00,,,0.00,342.000000,,2013-05-24 22:42:00,
2013-05-24 12:52:00,80.0,69.0,30.01,WSW,250,8.0,14.0,69,0.00,,,0.00,342.000000,,2013-05-24 22:52:00,
2013-05-24 13:02:00,80.0,69.0,30.01,WSW,250,8.0,14.0,69,0.00,,,0.00,342.000000,,2013-05-24 23:02:00,
2013-05-24 13:11:00,80.0,69.0,30.01,WSW,250,8.0,14.0,69,0.00,,,0.00,342.000000,,2013-05-24 23:11:00,
2013-05-24 13:32:00,81.0,69.0,30.00,WSW,257,8.0,13.0,67,0.00,,,0.00,351.000000,,2013-05-24 23:32:00,
2013-05-24 13:42:00,81.0,69.0,30.00,WSW,257,8.0,13.0,67,0.00,,,0.00,351.000000,,2013-05-24 23:42:00,
2013-05-24 13:52:00,81.0,69.0,30.00,WSW,257,8.0,13.0,67,0.00,,,0.00,351.000000,,2013-05-24 23:52:00,
2013-05-24 14:01:00,81.0,69.0,30.00,WSW,257,8.0,13.0,67,0.00,,,0.00,351.000000,,2013-05-25 00:01:00,
2013-05-24 14:11:00,81.0,69.0,30.00,WSW,257,8.0,13.0,67,0.00,,,0.00,351.000000,,2013-05-25 00:11:00,
2013-05-24 14:32:00,82.0,69.0,29.98,West,259,9.0,13.0,65,0.00,,,0.00,555.000000,,2013-05-25 00:32:00,
2013-05-24 14:42:00,82.0,69.0,29.98,West,259,9.0,13.0,65,0.00,,,0.00,555.000000,,2013-05-25 00:42:00,
2013-05-24 14:52:00,82.0,69.0,29.98,West,259,9.0,13.0,65,0.00,,,0.00,555.000000,,2013-05-25 00:52:00,
2013-05-24 15:01:00,82.0,69.0,29.98,West,259,9.0,13.0,65,0.00,,,0.00,555.000000,,2013-05-25 01:01:00,
2013-05-24 15:11:00,82.0,69.0,29.98,West,259,9.0,13.0,65,0.00,,,0.00,555.000000,,2013-05-25 01:11:00,
2013-05-24 15:32:00,83.0,70.0,29.97,SW,234,9.0,14.0,66,0.00,,,0.00,535.000000,,2013-05-25 01:32:00,
2013-05-24 15:42:00,83.0,70.0,29.97,SW,234,9.0,14.0,66,0.00,,,0.00,535.000000,,2013-05-25 01:42:00,
2013-05-24 15:52:00,83.0,70.0,29.97,SW,234,9.0,14.0,66,0.00,,,0.00,535.000000,,2013-05-25 01:52:00,
2013-05-24 16:01:00,83.0,70.0,29.97,SW,234,9.0,14.0,66,0.00,,,0.00,535.000000,,2013-05-25 02:01:00,
2013-05-24 16:11:00,83.0,70.0,29.97,SW,234,9.0,14.0,66,0.00,,,0.00,535.000000,,2013-05-25 02:11:00,
2013-05-24 16:32:00,83.0,70.0,29.96,SW,223,9.0,14.0,65,0.00,,,0.00,602.000000,,2013-05-25 02:32:00,
2013-05-24 16:42:00,83.0,70.0,29.96,SW,223,9.0,14.0,65,0.00,,,0.00,602.000000,,2013-05-25 02:42:00,
2013-05-24 16:52:00,83.0,70.0,29.96,SW,223,9.0,14.0,65,0.00,,,0.00,602.000000,,2013-05-25 02:52:00,
2013-05-24 17:01:00,83.0,70.0,29.96,SW,223,9.0,14.0,65,0.00,,,0.00,602.000000,,2013-05-25 03:01:00,
2013-05-24 17:11:00,83.0,70.0,29.96,SW,223,9.0,14.0,65,0.00,,,0.00,602.000000,,2013-05-25 03:11:00,
2013-05-24 17:33:00,83.0,69.0,29.97,SSW,207,7.0,13.0,63,0.00,,,0.00,436.000000,,2013-05-25 03:33:00,
2013-05-24 17:43:00,83.0,69.0,29.97,SSW,207,7.0,13.0,63,0.00,,,0.00,436.000000,,2013-05-25 03:43:00,
2013-05-24 17:53:00,83.0,69.0,29.97,SSW,207,7.0,13.0,63,0.00,,,0.00,436.000000,,2013-05-25 03:53:00,
2013-05-24 18:02:00,83.0,69.0,29.97,SSW,207,7.0,13.0,63,0.00,,,0.00,436.000000,,2013-05-25 04:02:00,
2013-05-24 18:12:00,83.0,69.0,29.97,SSW,207,7.0,13.0,63,0.00,,,0.00,436.000000,,2013-05-25 04:12:00,
2013-05-24 18:43:00,82.0,70.0,29.98,SSW,213,6.0,11.0,67,0.00,,,0.00,237.000000,,2013-05-25 04:43:00,
2013-05-24 18:52:00,82.0,70.0,29.98,SSW,213,6.0,11.0,67,0.00,,,0.00,237.000000,,2013-05-25 04:52:00,
2013-05-24 19:02:00,82.0,70.0,29.98,SSW,213,6.0,11.0,67,0.00,,,0.00,237.000000,,2013-05-25 05:02:00,
2013-05-24 19:12:00,82.0,70.0,29.98,SSW,213,6.0,11.0,67,0.00,,,0.00,237.000000,,2013-05-25 05:12:00,
2013-05-24 19:32:00,79.0,70.0,29.97,SE,132,1.0,8.0,74,0.00,,,0.00,45.000000,,2013-05-25 05:32:00,
2013-05-24 19:43:00,79.0,70.0,29.97,SE,132,1.0,8.0,74,0.00,,,0.00,45.000000,,2013-05-25 05:43:00,
2013-05-24 19:52:00,79.0,70.0,29.97,SE,132,1.0,8.0,74,0.00,,,0.00,45.000000,,2013-05-25 05:52:00,
2013-05-24 20:01:00,79.0,70.0,29.97,SE,132,1.0,8.0,74,0.00,,,0.00,45.000000,,2013-05-25 06:01:00,
2013-05-24 20:12:00,79.0,70.0,29.97,SE,132,1.0,8.0,74,0.00,,,0.00,45.000000,,2013-05-25 06:12:00,
2013-05-24 20:42:00,77.0,69.0,29.99,SE,129,5.0,9.0,77,0.00,,,0.00,0.000000,,2013-05-25 06:42:00,
2013-05-24 20:52:00,77.0,69.0,29.99,SE,129,5.0,9.0,77,0.00,,,0.00,0.000000,,2013-05-25 06:52:00,
2013-05-24 21:01:00,77.0,69.0,29.99,SE,129,5.0,9.0,77,0.00,,,0.00,0.000000,,2013-05-25 07:01:00,
2013-05-24 21:11:00,77.0,69.0,29.99,SE,129,5.0,9.0,77,0.00,,,0.00,0.000000,,2013-05-25 07:11:00,
2013-05-24 21:32:00,76.0,68.0,30.00,East,89,5.0,8.0,77,0.00,,,0.00,0.000000,,2013-05-25 07:32:00,
2013-05-24 21:42:00,76.0,68.0,30.00,East,89,5.0,8.0,77,0.00,,,0.00,0.000000,,2013-05-25 07:42:00,
2013-05-24 21:52:00,76.0,68.0,30.00,East,89,5.0,8.0,77,0.00,,,0.00,0.000000,,2013-05-25 07:52:00,
2013-05-24 22:02:00,76.0,68.0,30.00,East,89,5.0,8.0,77,0.00,,,0.00,0.000000,,2013-05-25 08:02:00,
2013-05-24 22:11:00,76.0,68.0,30.00,East,89,5.0,8.0,77,0.00,,,0.00,0.000000,,2013-05-25 08:11:00,
2013-05-24 22:32:00,75.0,68.0,30.00,ESE,111,3.0,6.0,79,0.00,,,0.00,0.000000,,2013-05-25 08:32:00,
2013-05-24 22:42:00,75.0,68.0,30.00,ESE,111,3.0,6.0,79,0.00,,,0.00,0.000000,,2013-05-25 08:42:00,
2013-05-24 22:52:00,75.0,68.0,30.00,ESE,111,3.0,6.0,79,0.00,,,0.00,0.000000,,2013-05-25 08:52:00,
2013-05-24 23:01:00,75.0,68.0,30.00,ESE,111,3.0,6.0,79,0.00,,,0.00,0.000000,,2013-05-25 09:01:00,
2013-05-24 23:11:00,75.0,68.0,30.00,ESE,111,3.0,6.0,79,0.00,,,0.00,0.000000,,2013-05-25 09:11:00,
2013-05-24 23:43:00,75.0,67.0,29.99,ENE,58,2.0,6.0,77,0.00,,,0.00,0.000000,,2013-05-25 09:43:00,
2013-05-24 23:53:00,75.0,67.0,29.99,ENE,58,2.0,6.0,77,0.00,,,0.00,0.000000,,2013-05-25 09:53:00,